Station Historical Data
Daily Summary for August 30, 2017 Units:  English    Metric   Both
Next Day »
Daily Weekly Monthly Yearly Custom
  High: Low: Average:
Temperature: 94.6 °F 73.0 °F 80.8 °F
Dew Point: 54.2 °F 34.7 °F 47.9 °F
Humidity: 46% 14% 34%
Wind Speed: 16.0mph 0.0mph 3.3mph
Wind Gust: 20.0mph - -
Wind- - SSE
Pressure: 29.84 in 29.77 in -
Precipitation: 0.00 in    
Historical Graphs
 
 
Tabular Data for August 30, 2017
Time Temperature Dew Point Pressure Wind Wind Speed Wind Gust Humidity Rainfall Rate (Hourly) solar Conditions
00:00 77.2 °F 54.2 °F 29.79 in ESE 7.0 mph 14.0 mph 45% 0.00 in 0.00 W/m2
00:05 77.1 °F 54.2 °F 29.79 in ESE 6.0 mph 13.0 mph 45% 0.00 in 0.00 W/m2
00:10 77.1 °F 54.2 °F 29.79 in ESE 4.0 mph 9.0 mph 45% 0.00 in 0.00 W/m2
00:15 77.1 °F 54.2 °F 29.79 in ESE 5.0 mph 11.0 mph 45% 0.00 in 0.00 W/m2
00:20 77.0 °F 54.1 °F 29.79 in ESE 5.0 mph 9.0 mph 45% 0.00 in 0.00 W/m2
00:25 77.0 °F 54.1 °F 29.79 in East 5.0 mph 12.0 mph 45% 0.00 in 0.00 W/m2
00:30 77.0 °F 54.1 °F 29.79 in ESE 6.0 mph 9.0 mph 45% 0.00 in 0.00 W/m2
00:35 77.0 °F 54.1 °F 29.79 in ESE 7.0 mph 11.0 mph 45% 0.00 in 0.00 W/m2
00:40 77.0 °F 54.1 °F 29.79 in ESE 6.0 mph 13.0 mph 45% 0.00 in 0.00 W/m2
00:45 77.0 °F 54.1 °F 29.79 in East 2.0 mph 13.0 mph 45% 0.00 in 0.00 W/m2
00:50 77.0 °F 53.4 °F 29.79 in ESE 4.0 mph 11.0 mph 44% 0.00 in 0.00 W/m2
00:55 77.0 °F 53.4 °F 29.79 in ESE 4.0 mph 9.0 mph 44% 0.00 in 0.00 W/m2
01:00 76.9 °F 53.3 °F 29.79 in ESE 6.0 mph 11.0 mph 44% 0.00 in 0.00 W/m2
01:05 76.9 °F 53.3 °F 29.78 in ESE 6.0 mph 9.0 mph 44% 0.00 in 0.00 W/m2
01:10 76.8 °F 53.3 °F 29.79 in ESE 7.0 mph 11.0 mph 44% 0.00 in 0.00 W/m2
01:15 76.8 °F 53.3 °F 29.78 in ESE 7.0 mph 12.0 mph 44% 0.00 in 0.00 W/m2
01:18 76.7 °F 53.2 °F 29.78 in ESE 2.0 mph 9.0 mph 44% 0.00 in 0.00 W/m2
01:23 76.7 °F 53.2 °F 29.78 in ESE 6.0 mph 9.0 mph 44% 0.00 in 0.00 W/m2
01:28 76.6 °F 52.5 °F 29.78 in ESE 5.0 mph 11.0 mph 43% 0.00 in 0.00 W/m2
01:33 76.6 °F 52.5 °F 29.78 in East 2.0 mph 13.0 mph 43% 0.00 in 0.00 W/m2
01:38 76.6 °F 52.5 °F 29.78 in ESE 6.0 mph 13.0 mph 43% 0.00 in 0.00 W/m2
01:43 76.5 °F 52.4 °F 29.78 in ESE 5.0 mph 12.0 mph 43% 0.00 in 0.00 W/m2
01:48 76.4 °F 52.3 °F 29.78 in ESE 7.0 mph 14.0 mph 43% 0.00 in 0.00 W/m2
01:53 76.4 °F 52.3 °F 29.77 in East 9.0 mph 14.0 mph 43% 0.00 in 0.00 W/m2
01:58 76.4 °F 52.3 °F 29.78 in ESE 5.0 mph 14.0 mph 43% 0.00 in 0.00 W/m2
02:04 76.3 °F 52.2 °F 29.78 in ESE 2.0 mph 14.0 mph 43% 0.00 in 0.00 W/m2
02:09 76.3 °F 52.2 °F 29.78 in ESE 1.0 mph 11.0 mph 43% 0.00 in 0.00 W/m2
02:14 76.3 °F 52.2 °F 29.78 in ESE 9.0 mph 11.0 mph 43% 0.00 in 0.00 W/m2
02:19 76.3 °F 52.2 °F 29.78 in ESE 1.0 mph 9.0 mph 43% 0.00 in 0.00 W/m2
02:24 76.3 °F 51.5 °F 29.78 in ESE 6.0 mph 11.0 mph 42% 0.00 in 0.00 W/m2
02:29 76.3 °F 51.5 °F 29.78 in ESE 7.0 mph 11.0 mph 42% 0.00 in 0.00 W/m2
02:37 76.3 °F 52.2 °F 29.78 in ESE 2.0 mph 11.0 mph 43% 0.00 in 0.00 W/m2
02:42 76.2 °F 52.1 °F 29.78 in East 11.0 mph 14.0 mph 43% 0.00 in 0.00 W/m2
02:47 76.0 °F 51.9 °F 29.78 in East 5.0 mph 11.0 mph 43% 0.00 in 0.00 W/m2
02:57 75.9 °F 51.8 °F 29.78 in Calm   9.0 mph 43% 0.00 in 0.00 W/m2
03:02 75.8 °F 51.7 °F 29.78 in East 8.0 mph 11.0 mph 43% 0.00 in 0.00 W/m2
03:07 75.8 °F 51.7 °F 29.78 in ESE 5.0 mph 13.0 mph 43% 0.00 in 0.00 W/m2
03:12 75.7 °F 51.6 °F 29.78 in ESE 1.0 mph 8.0 mph 43% 0.00 in 0.00 W/m2
03:17 75.6 °F 51.5 °F 29.78 in ESE 6.0 mph 7.0 mph 43% 0.00 in 0.00 W/m2
03:22 75.6 °F 51.5 °F 29.78 in Calm   6.0 mph 43% 0.00 in 0.00 W/m2
03:27 75.6 °F 51.5 °F 29.78 in ESE 4.0 mph 7.0 mph 43% 0.00 in 0.00 W/m2
03:32 75.6 °F 51.5 °F 29.78 in ESE 5.0 mph 11.0 mph 43% 0.00 in 0.00 W/m2
03:37 75.5 °F 51.5 °F 29.78 in ESE 5.0 mph 7.0 mph 43% 0.00 in 0.00 W/m2
03:42 75.5 °F 51.5 °F 29.78 in ESE 1.0 mph 6.0 mph 43% 0.00 in 0.00 W/m2
03:47 75.4 °F 51.4 °F 29.78 in ESE 2.0 mph 9.0 mph 43% 0.00 in 0.00 W/m2
03:52 75.4 °F 51.4 °F 29.78 in ESE 1.0 mph 8.0 mph 43% 0.00 in 0.00 W/m2
03:57 75.3 °F 51.3 °F 29.78 in ESE 1.0 mph 11.0 mph 43% 0.00 in 0.00 W/m2
04:02 75.3 °F 50.7 °F 29.78 in ESE 1.0 mph 8.0 mph 42% 0.00 in 0.00 W/m2
04:07 75.2 °F 50.6 °F 29.78 in ESE 1.0 mph 9.0 mph 42% 0.00 in 0.00 W/m2
04:12 75.2 °F 51.2 °F 29.77 in ESE 9.0 mph 9.0 mph 43% 0.00 in 0.00 W/m2
04:17 75.2 °F 51.2 °F 29.78 in ESE 2.0 mph 8.0 mph 43% 0.00 in 0.00 W/m2
04:22 75.1 °F 51.1 °F 29.78 in ESE 2.0 mph 7.0 mph 43% 0.00 in 0.00 W/m2
04:27 75.0 °F 51.0 °F 29.77 in ESE 7.0 mph 11.0 mph 43% 0.00 in 0.00 W/m2
04:32 74.9 °F 50.9 °F 29.78 in ESE 6.0 mph 8.0 mph 43% 0.00 in 0.00 W/m2
04:37 74.9 °F 50.9 °F 29.78 in ESE 4.0 mph 12.0 mph 43% 0.00 in 0.00 W/m2
04:42 74.8 °F 50.8 °F 29.78 in East 6.0 mph 12.0 mph 43% 0.00 in 0.00 W/m2
04:47 74.7 °F 50.7 °F 29.78 in East 2.0 mph 12.0 mph 43% 0.00 in 0.00 W/m2
04:52 74.6 °F 50.7 °F 29.78 in East 7.0 mph 8.0 mph 43% 0.00 in 0.00 W/m2
04:58 74.5 °F 50.6 °F 29.78 in Calm   9.0 mph 43% 0.00 in 0.00 W/m2
05:03 74.4 °F 50.5 °F 29.77 in ESE 5.0 mph 9.0 mph 43% 0.00 in 0.00 W/m2
05:08 74.4 °F 50.5 °F 29.77 in East 5.0 mph 11.0 mph 43% 0.00 in 0.00 W/m2
05:13 74.3 °F 50.4 °F 29.77 in Calm   9.0 mph 43% 0.00 in 0.00 W/m2
05:18 74.2 °F 50.3 °F 29.77 in Calm   8.0 mph 43% 0.00 in 0.00 W/m2
05:23 74.2 °F 50.3 °F 29.77 in Calm   9.0 mph 43% 0.00 in 0.00 W/m2
05:28 74.1 °F 50.2 °F 29.77 in ESE 5.0 mph 7.0 mph 43% 0.00 in 0.00 W/m2
05:33 74.0 °F 50.1 °F 29.78 in ESE 1.0 mph 6.0 mph 43% 0.00 in 0.00 W/m2
05:38 74.0 °F 50.7 °F 29.78 in ESE 5.0 mph 9.0 mph 44% 0.00 in 0.00 W/m2
05:43 73.9 °F 50.6 °F 29.78 in ESE 1.0 mph 9.0 mph 44% 0.00 in 0.00 W/m2
05:48 73.8 °F 50.5 °F 29.78 in ESE 1.0 mph 8.0 mph 44% 0.00 in 0.00 W/m2
05:49 73.8 °F 50.5 °F 29.78 in ESE 5.0 mph 9.0 mph 44% 0.00 in 0.00 W/m2
05:54 73.7 °F 50.5 °F 29.78 in ESE 5.0 mph 8.0 mph 44% 0.00 in 0.00 W/m2
05:59 73.6 °F 50.4 °F 29.78 in ESE 5.0 mph 8.0 mph 44% 0.00 in 0.00 W/m2
06:04 73.6 °F 50.4 °F 29.78 in ESE 1.0 mph 7.0 mph 44% 0.00 in 0.00 W/m2
06:09 73.5 °F 50.3 °F 29.78 in East 9.0 mph 9.0 mph 44% 0.00 in 0.00 W/m2
06:14 73.4 °F 50.2 °F 29.78 in ESE 9.0 mph 9.0 mph 44% 0.00 in 0.00 W/m2
06:19 73.3 °F 50.1 °F 29.78 in ESE 1.0 mph 8.0 mph 44% 0.00 in 0.00 W/m2
06:24 73.3 °F 50.1 °F 29.78 in ESE 5.0 mph 11.0 mph 44% 0.00 in 0.00 W/m2
06:29 73.2 °F 50.0 °F 29.78 in ESE 4.0 mph 8.0 mph 44% 0.00 in 5.00 W/m2
06:34 73.1 °F 49.9 °F 29.79 in ESE 13.0 mph 14.0 mph 44% 0.00 in 7.00 W/m2
06:39 73.1 °F 49.9 °F 29.79 in ESE 9.0 mph 12.0 mph 44% 0.00 in 9.00 W/m2
06:44 73.0 °F 49.8 °F 29.79 in Calm   12.0 mph 44% 0.00 in 11.00 W/m2
06:50 73.0 °F 49.8 °F 29.79 in ESE 5.0 mph 11.0 mph 44% 0.00 in 14.00 W/m2
06:55 73.0 °F 49.8 °F 29.79 in ESE 8.0 mph 11.0 mph 44% 0.00 in 18.00 W/m2
07:00 73.0 °F 49.8 °F 29.79 in ESE 4.0 mph 12.0 mph 44% 0.00 in 23.00 W/m2
07:05 73.0 °F 49.8 °F 29.80 in ESE 8.0 mph 11.0 mph 44% 0.00 in 33.00 W/m2
07:10 73.0 °F 49.8 °F 29.80 in ESE 6.0 mph 14.0 mph 44% 0.00 in 44.00 W/m2
07:15 73.0 °F 49.8 °F 29.80 in ESE 4.0 mph 11.0 mph 44% 0.00 in 53.00 W/m2
07:20 73.1 °F 49.9 °F 29.80 in ESE 8.0 mph 14.0 mph 44% 0.00 in 67.00 W/m2
07:25 73.1 °F 49.9 °F 29.80 in Calm   14.0 mph 44% 0.00 in 83.00 W/m2
07:30 73.2 °F 50.0 °F 29.80 in ESE 2.0 mph 14.0 mph 44% 0.00 in 102.00 W/m2
07:35 73.2 °F 50.0 °F 29.80 in Calm   13.0 mph 44% 0.00 in 118.00 W/m2
07:36 73.3 °F 50.1 °F 29.80 in ESE 1.0 mph 1.0 mph 44% 0.00 in 120.00 W/m2
07:41 73.3 °F 50.1 °F 29.80 in ESE 1.0 mph 7.0 mph 44% 0.00 in 141.00 W/m2
07:46 73.4 °F 50.8 °F 29.80 in ESE 13.0 mph 13.0 mph 45% 0.00 in 163.00 W/m2
07:51 73.5 °F 50.9 °F 29.80 in Calm   5.0 mph 45% 0.00 in 179.00 W/m2
07:56 73.5 °F 50.9 °F 29.80 in Calm   1.0 mph 45% 0.00 in 200.00 W/m2
08:01 73.6 °F 51.0 °F 29.80 in Calm   11.0 mph 45% 0.00 in 221.00 W/m2
08:06 73.7 °F 51.1 °F 29.80 in Calm   1.0 mph 45% 0.00 in 243.00 W/m2
08:11 73.8 °F 51.2 °F 29.80 in ESE 4.0 mph 4.0 mph 45% 0.00 in 262.00 W/m2
08:16 74.0 °F 51.3 °F 29.81 in ESE 4.0 mph 4.0 mph 45% 0.00 in 278.00 W/m2
08:21 74.1 °F 52.0 °F 29.81 in Calm   8.0 mph 46% 0.00 in 297.00 W/m2
08:26 74.3 °F 51.6 °F 29.81 in Calm   7.0 mph 45% 0.00 in 313.00 W/m2
08:31 74.4 °F 51.7 °F 29.81 in Calm   6.0 mph 45% 0.00 in 330.00 W/m2
08:36 74.7 °F 52.0 °F 29.82 in Calm   6.0 mph 45% 0.00 in 348.00 W/m2
08:41 74.8 °F 52.1 °F 29.81 in Calm   7.0 mph 45% 0.00 in 367.00 W/m2
08:46 75.1 °F 52.3 °F 29.81 in Calm   6.0 mph 45% 0.00 in 378.00 W/m2
08:51 75.3 °F 51.9 °F 29.81 in SE 1.0 mph 4.0 mph 44% 0.00 in 399.00 W/m2
08:56 75.5 °F 52.7 °F 29.81 in Calm   2.0 mph 45% 0.00 in 411.00 W/m2
09:01 75.7 °F 52.9 °F 29.82 in Calm   9.0 mph 45% 0.00 in 427.00 W/m2
09:04 75.8 °F 53.0 °F 29.82 in SE 5.0 mph 9.0 mph 45% 0.00 in 436.00 W/m2
09:09 76.1 °F 52.6 °F 29.82 in Calm   5.0 mph 44% 0.00 in 452.00 W/m2
09:14 76.3 °F 52.2 °F 29.82 in Calm   4.0 mph 43% 0.00 in 464.00 W/m2
09:19 76.6 °F 53.1 °F 29.82 in SE 6.0 mph 6.0 mph 44% 0.00 in 482.00 W/m2
09:24 77.0 °F 52.8 °F 29.82 in Calm     43% 0.00 in 497.00 W/m2
09:29 77.4 °F 53.8 °F 29.82 in Calm   5.0 mph 44% 0.00 in 513.00 W/m2
09:39 78.0 °F 53.7 °F 29.83 in SSE 10.0 mph 10.0 mph 43% 0.00 in 540.00 W/m2
09:44 78.4 °F 53.4 °F 29.83 in Calm   8.0 mph 42% 0.00 in 552.00 W/m2
09:49 79.0 °F 49.8 °F 29.83 in Calm   12.0 mph 36% 0.00 in 563.00 W/m2
09:54 79.5 °F 50.2 °F 29.83 in SSE 7.0 mph 9.0 mph 36% 0.00 in 575.00 W/m2
09:59 80.0 °F 49.1 °F 29.83 in Calm   9.0 mph 34% 0.00 in 591.00 W/m2
10:04 80.4 °F 50.3 °F 29.83 in SSE 8.0 mph 11.0 mph 35% 0.00 in 606.00 W/m2
10:09 81.0 °F 50.0 °F 29.83 in SE 1.0 mph 14.0 mph 34% 0.00 in 610.00 W/m2
10:14 81.4 °F 48.7 °F 29.83 in SE 5.0 mph 10.0 mph 32% 0.00 in 628.00 W/m2
10:19 81.8 °F 48.2 °F 29.84 in Calm   9.0 mph 31% 0.00 in 640.00 W/m2
10:24 82.1 °F 49.3 °F 29.84 in Calm   10.0 mph 32% 0.00 in 650.00 W/m2
10:29 82.4 °F 50.4 °F 29.84 in Calm   11.0 mph 33% 0.00 in 663.00 W/m2
10:34 82.8 °F 50.8 °F 29.84 in South 6.0 mph 8.0 mph 33% 0.00 in 673.00 W/m2
10:39 83.1 °F 48.5 °F 29.84 in South 4.0 mph 9.0 mph 30% 0.00 in 686.00 W/m2
10:44 83.5 °F 47.9 °F 29.84 in South 1.0 mph 7.0 mph 29% 0.00 in 694.00 W/m2
10:49 83.9 °F 48.3 °F 29.84 in SSW 8.0 mph 9.0 mph 29% 0.00 in 705.00 W/m2
10:54 84.2 °F 51.2 °F 29.84 in South 2.0 mph 7.0 mph 32% 0.00 in 715.00 W/m2
10:59 84.5 °F 49.7 °F 29.84 in SSW 2.0 mph 9.0 mph 30% 0.00 in 728.00 W/m2
11:04 84.8 °F 49.0 °F 29.84 in Calm   11.0 mph 29% 0.00 in 738.00 W/m2
11:05 84.8 °F 50.0 °F 29.84 in Calm   11.0 mph 30% 0.00 in 738.00 W/m2
11:10 85.0 °F 48.3 °F 29.84 in SW 3.0 mph 10.0 mph 28% 0.00 in 747.00 W/m2
11:15 85.3 °F 47.6 °F 29.84 in Calm   11.0 mph 27% 0.00 in 754.00 W/m2
11:20 85.6 °F 48.8 °F 29.84 in SSW 2.0 mph 9.0 mph 28% 0.00 in 761.00 W/m2
11:25 85.9 °F 50.0 °F 29.84 in Calm   4.0 mph 29% 0.00 in 766.00 W/m2
11:30 86.3 °F 51.2 °F 29.84 in SW 7.0 mph 11.0 mph 30% 0.00 in 773.00 W/m2
11:35 86.7 °F 50.7 °F 29.84 in SW 7.0 mph 12.0 mph 29% 0.00 in 780.00 W/m2
11:40 87.1 °F 51.0 °F 29.84 in West 3.0 mph 9.0 mph 29% 0.00 in 788.00 W/m2
11:45 87.6 °F 50.5 °F 29.84 in Calm   9.0 mph 28% 0.00 in 796.00 W/m2
11:50 87.9 °F 49.8 °F 29.84 in Calm   9.0 mph 27% 0.00 in 803.00 W/m2
11:55 88.3 °F 50.1 °F 29.84 in SW 10.0 mph 13.0 mph 27% 0.00 in 807.00 W/m2
12:00 88.6 °F 50.4 °F 29.84 in SSW 7.0 mph 10.0 mph 27% 0.00 in 810.00 W/m2
12:06 89.0 °F 51.7 °F 29.84 in SSW 4.0 mph 12.0 mph 28% 0.00 in 817.00 W/m2
12:11 89.3 °F 51.0 °F 29.84 in Calm   7.0 mph 27% 0.00 in 821.00 W/m2
12:16 89.5 °F 50.1 °F 29.84 in Calm   12.0 mph 26% 0.00 in 824.00 W/m2
12:21 89.9 °F 50.5 °F 29.84 in SW 9.0 mph 10.0 mph 26% 0.00 in 826.00 W/m2
12:26 90.2 °F 50.7 °F 29.83 in WSW 5.0 mph 13.0 mph 26% 0.00 in 830.00 W/m2
12:31 90.4 °F 50.9 °F 29.83 in SSW 12.0 mph 12.0 mph 26% 0.00 in 835.00 W/m2
12:36 90.6 °F 52.1 °F 29.83 in WSW 5.0 mph 14.0 mph 27% 0.00 in 835.00 W/m2
12:41 90.8 °F 51.2 °F 29.83 in WSW 8.0 mph 12.0 mph 26% 0.00 in 835.00 W/m2
12:46 91.1 °F 51.5 °F 29.83 in Calm   14.0 mph 26% 0.00 in 838.00 W/m2
12:51 91.5 °F 51.8 °F 29.83 in SSW 2.0 mph 15.0 mph 26% 0.00 in 838.00 W/m2
12:56 91.9 °F 51.1 °F 29.83 in Calm   14.0 mph 25% 0.00 in 840.00 W/m2
13:01 92.1 °F 51.3 °F 29.83 in Calm   12.0 mph 25% 0.00 in 837.00 W/m2
13:06 92.6 °F 51.7 °F 29.83 in South 10.0 mph 20.0 mph 25% 0.00 in 837.00 W/m2
13:11 93.1 °F 51.0 °F 29.83 in SSW 6.0 mph 19.0 mph 24% 0.00 in 833.00 W/m2
13:16 93.3 °F 51.2 °F 29.83 in SE 5.0 mph 17.0 mph 24% 0.00 in 840.00 W/m2
13:21 93.6 °F 51.4 °F 29.83 in SW 7.0 mph 16.0 mph 24% 0.00 in 831.00 W/m2
13:26 93.8 °F 51.6 °F 29.83 in SW 10.0 mph 10.0 mph 24% 0.00 in 837.00 W/m2
13:31 93.8 °F 51.6 °F 29.83 in South 6.0 mph 9.0 mph 24% 0.00 in 837.00 W/m2
13:36 93.9 °F 50.5 °F 29.82 in South 8.0 mph 9.0 mph 23% 0.00 in 835.00 W/m2
13:41 94.1 °F 49.5 °F 29.82 in SW 3.0 mph 7.0 mph 22% 0.00 in 831.00 W/m2
13:46 94.2 °F 50.8 °F 29.83 in SSW 7.0 mph 11.0 mph 23% 0.00 in 831.00 W/m2
13:47 94.2 °F 49.6 °F 29.82 in Calm   11.0 mph 22% 0.00 in 830.00 W/m2
13:52 94.4 °F 48.5 °F 29.82 in SSE 4.0 mph 16.0 mph 21% 0.00 in 823.00 W/m2
13:57 94.5 °F 47.3 °F 29.82 in SSE 7.0 mph 10.0 mph 20% 0.00 in 824.00 W/m2
14:02 94.6 °F 48.7 °F 29.82 in SSW 16.0 mph 16.0 mph 21% 0.00 in 823.00 W/m2
14:07 94.5 °F 47.3 °F 29.83 in SW 11.0 mph 11.0 mph 20% 0.00 in 817.00 W/m2
14:12 93.6 °F 43.8 °F 29.82 in Calm   10.0 mph 18% 0.00 in 812.00 W/m2
14:17 93.4 °F 45.0 °F 29.82 in SW 8.0 mph 10.0 mph 19% 0.00 in 809.00 W/m2
14:22 93.4 °F 40.5 °F 29.82 in Calm   7.0 mph 16% 0.00 in 803.00 W/m2
14:27 93.5 °F 42.2 °F 29.82 in South 7.0 mph 13.0 mph 17% 0.00 in 796.00 W/m2
14:32 93.7 °F 42.4 °F 29.82 in SSW 1.0 mph 9.0 mph 17% 0.00 in 789.00 W/m2
14:37 93.9 °F 42.5 °F 29.82 in Calm   12.0 mph 17% 0.00 in 786.00 W/m2
14:42 93.8 °F 42.4 °F 29.82 in SSW 7.0 mph 12.0 mph 17% 0.00 in 780.00 W/m2
14:47 93.8 °F 42.4 °F 29.81 in SSW 5.0 mph 8.0 mph 17% 0.00 in 770.00 W/m2
14:52 93.8 °F 39.2 °F 29.81 in WSW 2.0 mph 3.0 mph 15% 0.00 in 761.00 W/m2
14:57 93.9 °F 39.3 °F 29.82 in South 5.0 mph 9.0 mph 15% 0.00 in 747.00 W/m2
15:02 93.9 °F 39.3 °F 29.81 in SSW 2.0 mph 9.0 mph 15% 0.00 in 742.00 W/m2
15:07 93.9 °F 39.3 °F 29.81 in Calm   6.0 mph 15% 0.00 in 728.00 W/m2
15:12 93.8 °F 39.2 °F 29.81 in Calm   8.0 mph 15% 0.00 in 726.00 W/m2
15:17 93.6 °F 39.0 °F 29.81 in Calm   3.0 mph 15% 0.00 in 714.00 W/m2
15:22 93.0 °F 36.8 °F 29.81 in West 1.0 mph 8.0 mph 14% 0.00 in 705.00 W/m2
15:27 92.6 °F 41.5 °F 29.81 in SW 5.0 mph 10.0 mph 17% 0.00 in 694.00 W/m2
15:32 92.3 °F 39.7 °F 29.80 in Calm   8.0 mph 16% 0.00 in 680.00 W/m2
15:37 92.1 °F 37.9 °F 29.80 in Calm   5.0 mph 15% 0.00 in 673.00 W/m2
15:42 91.9 °F 40.9 °F 29.80 in SW 7.0 mph 10.0 mph 17% 0.00 in 661.00 W/m2
15:47 91.7 °F 39.2 °F 29.80 in SW 5.0 mph 14.0 mph 16% 0.00 in 647.00 W/m2
15:52 91.6 °F 40.7 °F 29.80 in Calm   1.0 mph 17% 0.00 in 635.00 W/m2
15:57 91.5 °F 40.6 °F 29.80 in Calm   5.0 mph 17% 0.00 in 619.00 W/m2
16:02 91.2 °F 40.3 °F 29.80 in SW 4.0 mph 4.0 mph 17% 0.00 in 608.00 W/m2
16:07 90.9 °F 38.5 °F 29.80 in WNW 4.0 mph 9.0 mph 16% 0.00 in 591.00 W/m2
16:12 90.8 °F 38.5 °F 29.80 in Calm     16% 0.00 in 580.00 W/m2
16:17 90.6 °F 38.3 °F 29.79 in WSW 6.0 mph 7.0 mph 16% 0.00 in 568.00 W/m2
16:22 90.3 °F 36.4 °F 29.80 in WNW 4.0 mph 7.0 mph 15% 0.00 in 550.00 W/m2
16:27 90.3 °F 34.7 °F 29.80 in West 6.0 mph 9.0 mph 14% 0.00 in 540.00 W/m2
16:32 90.3 °F 36.4 °F 29.80 in WSW 4.0 mph 8.0 mph 15% 0.00 in 526.00 W/m2
16:33 90.3 °F 36.4 °F 29.80 in Calm   8.0 mph 15% 0.00 in 524.00 W/m2
16:38 90.3 °F 36.4 °F 29.80 in WSW 5.0 mph 8.0 mph 15% 0.00 in 512.00 W/m2
16:43 90.4 °F 34.8 °F 29.80 in West 2.0 mph 8.0 mph 14% 0.00 in 492.00 W/m2
16:49 90.3 °F 34.7 °F 29.80 in Calm   1.0 mph 14% 0.00 in 478.00 W/m2
16:53 90.1 °F 37.9 °F 29.80 in Calm   7.0 mph 16% 0.00 in 464.00 W/m2
16:58 90.0 °F 37.8 °F 29.80 in WSW 4.0 mph 8.0 mph 16% 0.00 in 448.00 W/m2
17:04 89.8 °F 40.7 °F 29.80 in SSW 5.0 mph 9.0 mph 18% 0.00 in 432.00 W/m2
17:09 89.7 °F 39.1 °F 29.80 in SW 1.0 mph 6.0 mph 17% 0.00 in 417.00 W/m2
17:14 89.6 °F 41.9 °F 29.80 in WSW 5.0 mph 9.0 mph 19% 0.00 in 397.00 W/m2
17:19 89.5 °F 40.5 °F 29.80 in Calm   6.0 mph 18% 0.00 in 381.00 W/m2
17:24 89.4 °F 41.8 °F 29.80 in Calm   8.0 mph 19% 0.00 in 371.00 W/m2
17:29 89.2 °F 41.6 °F 29.80 in Calm     19% 0.00 in 359.00 W/m2
17:34 89.1 °F 44.1 °F 29.80 in Calm   4.0 mph 21% 0.00 in 341.00 W/m2
17:39 88.8 °F 42.6 °F 29.79 in Calm   1.0 mph 20% 0.00 in 325.00 W/m2
17:44 88.5 °F 42.3 °F 29.80 in Calm   1.0 mph 20% 0.00 in 308.00 W/m2
17:49 88.3 °F 43.5 °F 29.80 in Calm   5.0 mph 21% 0.00 in 290.00 W/m2
17:54 88.1 °F 44.5 °F 29.79 in WSW 3.0 mph 4.0 mph 22% 0.00 in 274.00 W/m2
17:59 87.8 °F 44.3 °F 29.79 in Calm   2.0 mph 22% 0.00 in 257.00 W/m2
18:04 87.7 °F 45.3 °F 29.79 in Calm   1.0 mph 23% 0.00 in 241.00 W/m2
18:09 87.5 °F 46.3 °F 29.79 in Calm   4.0 mph 24% 0.00 in 225.00 W/m2
18:14 87.3 °F 46.1 °F 29.79 in Calm   3.0 mph 24% 0.00 in 206.00 W/m2
18:19 87.0 °F 45.9 °F 29.79 in Calm   4.0 mph 24% 0.00 in 188.00 W/m2
18:24 86.7 °F 46.7 °F 29.79 in Calm     25% 0.00 in 172.00 W/m2
18:29 86.4 °F 46.5 °F 29.79 in Calm   6.0 mph 25% 0.00 in 153.00 W/m2
18:34 86.1 °F 47.2 °F 29.79 in WSW 2.0 mph 2.0 mph 26% 0.00 in 130.00 W/m2
18:39 85.8 °F 47.0 °F 29.79 in Calm   2.0 mph 26% 0.00 in 111.00 W/m2
18:44 85.3 °F 47.6 °F 29.79 in Calm   1.0 mph 27% 0.00 in 93.00 W/m2
18:49 84.7 °F 48.0 °F 29.79 in Calm     28% 0.00 in 74.00 W/m2
18:54 84.2 °F 48.5 °F 29.79 in Calm     29% 0.00 in 58.00 W/m2
18:59 83.7 °F 49.0 °F 29.78 in Calm   1.0 mph 30% 0.00 in 46.00 W/m2
19:04 83.1 °F 48.5 °F 29.78 in Calm   1.0 mph 30% 0.00 in 35.00 W/m2
19:09 82.6 °F 48.1 °F 29.78 in Calm   1.0 mph 30% 0.00 in 26.00 W/m2
19:14 82.2 °F 48.6 °F 29.78 in Calm   1.0 mph 31% 0.00 in 18.00 W/m2
19:19 81.8 °F 48.2 °F 29.78 in Calm     31% 0.00 in 14.00 W/m2
19:24 81.3 °F 48.7 °F 29.78 in Calm     32% 0.00 in 12.00 W/m2
19:30 80.7 °F 48.1 °F 29.78 in Calm     32% 0.00 in 9.00 W/m2
19:35 80.1 °F 47.6 °F 29.78 in Calm     32% 0.00 in 7.00 W/m2
19:45 79.2 °F 46.8 °F 29.78 in Calm   1.0 mph 32% 0.00 in 0.00 W/m2
19:50 78.9 °F 45.7 °F 29.78 in WSW 2.0 mph 4.0 mph 31% 0.00 in 0.00 W/m2
19:55 78.5 °F 46.2 °F 29.79 in WSW 3.0 mph 4.0 mph 32% 0.00 in 0.00 W/m2
20:00 78.1 °F 45.9 °F 29.79 in WSW 2.0 mph 4.0 mph 32% 0.00 in 0.00 W/m2
20:05 77.8 °F 45.6 °F 29.79 in Calm   3.0 mph 32% 0.00 in 0.00 W/m2
20:10 77.6 °F 45.4 °F 29.79 in WSW 3.0 mph 3.0 mph 32% 0.00 in 0.00 W/m2
20:17 77.3 °F 46.0 °F 29.79 in WSW 3.0 mph 3.0 mph 33% 0.00 in 0.00 W/m2
20:21 77.0 °F 45.7 °F 29.79 in WSW 1.0 mph 3.0 mph 33% 0.00 in 0.00 W/m2
20:22 76.9 °F 44.8 °F 29.79 in WSW 2.0 mph 3.0 mph 32% 0.00 in 0.00 W/m2
20:27 76.7 °F 45.5 °F 29.80 in WSW 2.0 mph 3.0 mph 33% 0.00 in 0.00 W/m2
20:32 76.4 °F 45.2 °F 29.79 in WSW 2.0 mph 3.0 mph 33% 0.00 in 0.00 W/m2
20:37 76.2 °F 45.0 °F 29.80 in WSW 2.0 mph 2.0 mph 33% 0.00 in 0.00 W/m2
20:42 76.0 °F 44.8 °F 29.80 in Calm     33% 0.00 in 0.00 W/m2
20:47 75.8 °F 45.5 °F 29.80 in Calm     34% 0.00 in 0.00 W/m2
20:52 75.7 °F 45.4 °F 29.80 in Calm     34% 0.00 in 0.00 W/m2
20:57 75.7 °F 45.4 °F 29.80 in Calm     34% 0.00 in 0.00 W/m2
21:02 75.6 °F 46.0 °F 29.80 in Calm     35% 0.00 in 0.00 W/m2
21:07 75.5 °F 46.0 °F 29.80 in Calm     35% 0.00 in 0.00 W/m2
21:12 75.3 °F 45.8 °F 29.80 in WSW 2.0 mph 3.0 mph 35% 0.00 in 0.00 W/m2
21:17 75.1 °F 46.3 °F 29.80 in WSW 1.0 mph 3.0 mph 36% 0.00 in 0.00 W/m2
21:22 75.0 °F 46.3 °F 29.80 in WSW 1.0 mph 4.0 mph 36% 0.00 in 0.00 W/m2
21:27 75.0 °F 46.3 °F 29.80 in WSW 3.0 mph 4.0 mph 36% 0.00 in 0.00 W/m2
21:32 74.9 °F 46.2 °F 29.80 in SSW 2.0 mph 3.0 mph 36% 0.00 in 0.00 W/m2
21:37 74.9 °F 45.4 °F 29.80 in South 2.0 mph 4.0 mph 35% 0.00 in 0.00 W/m2
21:42 74.8 °F 45.3 °F 29.80 in SSE 1.0 mph 5.0 mph 35% 0.00 in 0.00 W/m2
21:47 74.8 °F 45.3 °F 29.80 in SSE 6.0 mph 7.0 mph 35% 0.00 in 0.00 W/m2
21:52 74.8 °F 44.6 °F 29.80 in Calm   5.0 mph 34% 0.00 in 0.00 W/m2
21:57 74.7 °F 45.3 °F 29.80 in Calm   6.0 mph 35% 0.00 in 0.00 W/m2
21:58 74.7 °F 44.5 °F 29.80 in SE 2.0 mph 7.0 mph 34% 0.00 in 0.00 W/m2
22:03 74.7 °F 45.3 °F 29.80 in SE 4.0 mph 6.0 mph 35% 0.00 in 0.00 W/m2
22:08 74.6 °F 44.4 °F 29.80 in SE 4.0 mph 7.0 mph 34% 0.00 in 0.00 W/m2
22:13 74.6 °F 44.4 °F 29.80 in ESE 4.0 mph 7.0 mph 34% 0.00 in 0.00 W/m2
22:18 74.5 °F 44.3 °F 29.80 in ESE 1.0 mph 7.0 mph 34% 0.00 in 0.00 W/m2
22:23 74.4 °F 44.2 °F 29.80 in ESE 8.0 mph 8.0 mph 34% 0.00 in 0.00 W/m2
22:28 74.3 °F 44.1 °F 29.80 in ESE 4.0 mph 6.0 mph 34% 0.00 in 0.00 W/m2
22:33 74.2 °F 44.1 °F 29.80 in ESE 4.0 mph 8.0 mph 34% 0.00 in 0.00 W/m2
22:38 74.1 °F 44.0 °F 29.80 in East 4.0 mph 6.0 mph 34% 0.00 in 0.00 W/m2
22:43 74.1 °F 43.2 °F 29.80 in ESE 4.0 mph 8.0 mph 33% 0.00 in 0.00 W/m2
22:48 74.0 °F 43.1 °F 29.80 in East 5.0 mph 7.0 mph 33% 0.00 in 0.00 W/m2
22:53 73.9 °F 43.0 °F 29.80 in ESE 6.0 mph 8.0 mph 33% 0.00 in 0.00 W/m2
22:58 73.9 °F 43.0 °F 29.80 in East 5.0 mph 8.0 mph 33% 0.00 in 0.00 W/m2
23:03 73.8 °F 43.7 °F 29.80 in East 7.0 mph 8.0 mph 34% 0.00 in 0.00 W/m2
23:08 73.7 °F 43.6 °F 29.80 in East 7.0 mph 9.0 mph 34% 0.00 in 0.00 W/m2
23:13 73.7 °F 42.8 °F 29.80 in East 9.0 mph 11.0 mph 33% 0.00 in 0.00 W/m2
23:18 73.6 °F 42.8 °F 29.80 in East 4.0 mph 9.0 mph 33% 0.00 in 0.00 W/m2
23:24 73.5 °F 42.7 °F 29.80 in East 8.0 mph 9.0 mph 33% 0.00 in 0.00 W/m2
23:29 73.4 °F 42.6 °F 29.80 in East 4.0 mph 11.0 mph 33% 0.00 in 0.00 W/m2
23:34 73.3 °F 42.5 °F 29.80 in East 4.0 mph 11.0 mph 33% 0.00 in 0.00 W/m2
23:39 73.3 °F 42.5 °F 29.80 in East 6.0 mph 9.0 mph 33% 0.00 in 0.00 W/m2
23:44 73.2 °F 42.4 °F 29.80 in East 6.0 mph 9.0 mph 33% 0.00 in 0.00 W/m2
23:49 73.1 °F 42.3 °F 29.80 in East 8.0 mph 9.0 mph 33% 0.00 in 0.00 W/m2
23:54 73.1 °F 42.3 °F 29.80 in East 7.0 mph 12.0 mph 33% 0.00 in 0.00 W/m2
23:59 73.0 °F 42.2 °F 29.80 in East 5.0 mph 9.0 mph 33% 0.00 in 0.00 W/m2
Foresthill Weather
 WU-history PHP script courtesy of   Juneau County Weather.
powered by Cumulus v1.9.3 (1059)
Ambient Weather VWS v14.00
Top Contact Website Map Copyright © 2007 - 2018 Foresthillweather.com Never base important decisions on this or any weather information obtained from the Internet